Regional Weather Roundup
Issued by NWS New Orleans/Baton Rouge, LA

Home | Current Version | Previous Version | Text Only | Print | Product List | Glossary On
Versions: 1 2 3 4 5 6 7 8 9 10 11 12 13 14 15 16 17 18 19 20 21 22 23 24 25 26 27 28 29 30 31 32 33 34 35 36 37 38 39 40 41 42 43 44 45 46 47 48 49 50
552
ASUS44 KLIX 300805
RWRLIX
NEW ORLEANS REGIONAL WEATHER ROUNDUP
NATIONAL WEATHER SERVICE NEW ORLEANS LA
300 AM CDT WED JUL 30 2014

NOTE: "FAIR" INDICATES FEW OR NO CLOUDS BELOW 12,000 FEET WITH NO
      SIGNIFICANT WEATHER AND/OR OBSTRUCTIONS TO VISIBILITY.
      SKY/WX - SKY CONDITION AND SIGNIFICANT WEATHER.
      TMP - AIR TEMPERATURE.     DP    - DEWPOINT TEMPERATURE.
      RH  - RELATIVE HUMIDITY.   PRES  - PRESSURE.
      HI  - HEAT INDEX.          WCI   - WIND CHILL INDEX.

*  THESE STATIONS ARE NOT NWS OR FAA STATIONS AND ARE NOT UNDER
   NWS QUALITY CONTROL.

LAZ038-040-048-061>063-065>067-069-300900-
SOUTHEAST LOUISIANA

CITY           SKY/WX    TMP DP  RH WIND       PRES   REMARKS
N.O. AUDUBON     N/A     78  67  67 MISG        N/A
N.O. INTL ARPT PTCLDY    79  64  60 NE13      30.03F
N.O. LAKEFRONT CLEAR     79  67  66 NE18      30.03F
N.O. DOWNTOWN*   N/A     79  63  57 NE8       30.03S
SLIDELL        CLEAR     70  66  87 N3        30.03F
BATON ROUGE    CLEAR     71  65  81 NE6       30.05F
BOOTHVILLE     CLEAR     80  72  76 VRB7      30.02S
BELLE CHASSE   CLEAR     75  65  70 NE7       30.03S
BOGALUSA*        N/A     67  62  84 N3        30.06F
GALLIANO*      NOT AVBL
NEW ROADS*     PTSUNNY   71  64  79 NE5       30.06S
GONZALES*        N/A     71  70  98 CALM      30.04S
HAMMOND*       CLEAR     72  63  73 N5        30.06F
HOUMA*         CLEAR     74  67  77 N3        30.03S
PORT FOURCHON* SUNNY     81  70  69 N6        30.03S

$$

MSZ070-080>082-300900-
SOUTHERN MISSISSIPPI

CITY           SKY/WX    TMP DP  RH WIND       PRES   REMARKS
MCCOMB         CLEAR     68  60  75 N5        30.07S
GULFPORT       CLEAR     76  64  66 NE6       30.02F
BILOXI         CLEAR     73  64  73 NE9       30.03S
PASCAGOULA     CLEAR     71  62  73 N6        30.03S

$$

COASTAL OBSERVATIONS
LAKE AND NEARSHORE STATIONS

STATION/POSITION TIME  TEMP    WIND        PRES    WAVE
                       AIR SEA DIR/SP/G            HT/PER
                 (UTC) (F)     (DEG/KT/KT) (MB)    (FT/S)
PASCAGOULA       0800   75      20/  8/ 11 1016.1
WAVELAND YACHT   0800   75      40/ 10/ 13 1016.3
GRAND ISLE       0800   82 86   30/ 13/ 16 1017.0
SOUTHWEST PASS   0800   83 84  360/  4/  5 1016.6
NEW CANAL        0800   80 84   50/ 17/ 20 1017.0
SHELL BEACH      0800   79 81   40/ 16/ 19 1016.4

OFFSHORE STATIONS

STATION/POSITION TIME  TEMP    WIND        PRES    WAVE
                       AIR SEA DIR/SP/G            HT/PER
                 (UTC) (F)     (DEG/KT/KT) (MB)    (FT/S)
64 S DAUPHIN ISL 0658   83 85  300/  6/  8 1015.9

$$




USA.gov is the U.S. government's official web portal to all federal, state and local government web resources and services.